USA 170

导读

USA 170,也称作DSCS-3 B6,是美国空军所属的军事通信卫星,于2003年8月29日在卡纳维拉尔角由德尔塔IV-M火箭发射升空,被送入地球同步转移轨道。它属于美国第三代国防卫星通信系统(DSCS-3),为美军提供可靠的战略通信服务,具备较强的抗干扰能力,支撑美军全球指挥、信息传输等军事行动,是美国军用通信卫星体系的重要组成部分。

基本信息
目录编号:
27875
目录名称:
USA 170
国际标识:
2003-040A
轨道中心:
EARTH
卫星名称:
USA 170
卫星全名:
--
卫星状态:
在轨 (已飞行8326 天)
发射日期:
2003-08-29 UTC
国别 :
美国 (US)
星等 :
--
轨道信息
数据来源 国际轨道数据 AOE轨道数据
星历时间 2026-06-15T02:36:42+0800
7小时前
查看轨道信息
2026-06-15T06:00:00+0800
4小时前
查看轨道信息
半长轴 42165.794km 42165.653km
偏心率 0.0001659 0.0001941
轨道倾角 10.495° 10.497°
近地点辐角 63.149° 59.261°
升交点赤经 47.972° 47.971°
平近点角 95.417° 150.264°
近地点 35780.661km 35779.331km
远地点 35794.653km 35795.701km
周期 1436.151分钟 1436.144分钟
每日圈数 1.00268 1.002685
详细信息
使用方式:
暂无
2D轨道图
3D轨道图
轨道高度分析图
轨道倾角分析图
轨道综合分析图
查看轨道综合分析图